Regional Weather Roundup
Issued by NWS Sioux Falls, SD

Home | Current Version | Previous Version | Text Only | Print | Product List | Glossary Off
Versions: 1 2 3 4 5 6 7 8 9 10 11 12 13 14 15 16 17 18 19 20 21 22 23 24 25 26 27 28 29 30 31 32 33 34 35 36 37 38 39 40 41 42 43 44 45 46 47 48 49 50

000
ASUS43 KFSD 292102
RWRFSD

WEATHER ROUNDUP FOR SE SOUTH DAKOTA/SW MINNESOTA/NW IOWA
NATIONAL WEATHER SERVICE SIOUX FALLS SD
300 PM CST THU JAN 29 2015

NOTE: "FAIR" INDICATES FEW OR NO CLOUDS BELOW 12,000 FEET WITH NO
SIGNIFICANT WEATHER AND OR OBSTRUCTIONS TO VISIBILITY.


SDZ038>040-050-052>070-292200-
SOUTHEAST SOUTH DAKOTA

CITY           SKY/WX    TMP DP  RH WIND       PRES   REMARKS
CHAMBERLAIN    NOT AVBL
HURON          CLOUDY    28  20  71 N17       30.48R WCI  16
MADISON        CLOUDY    27  27 100 NW23G29   30.42S WCI  12
MITCHELL       CLOUDY    33  22  63 NW17      30.48R WCI  22
SIOUX FALLS    CLOUDY    30  21  69 NW21G30   30.43R WCI  17
WINNER         FAIR      42  23  46 N13       30.44F
YANKTON        PTSUNNY   36  21  55 NW21G28   30.45F
$$

MNZ071-072-080-081-089-090-097-098-292200-
SOUTHWEST MINNESOTA

CITY           SKY/WX    TMP DP  RH WIND       PRES   REMARKS
FAIRMONT       CLOUDY    27  18  69 NW24G31   30.34R WCI  12
JACKSON        CLOUDY    28  21  74 NW23G37   30.36R WCI  14
LUVERNE        CLOUDY    32  23  69 N16G23    30.41R WCI  21
MARSHALL       CLOUDY    25  16  68 N28       30.43R WCI   8
MONTEVIDEO     CLOUDY    21  16  79 N23G31    30.44R WCI   5
PIPESTONE      CLOUDY    27  21  80 N17G25    30.39R WCI  14
REDWOOD FALLS  CLOUDY    24  14  65 NW22G37   30.40R WCI   9
TRACY          CLOUDY    27  22  81 NW20G28   30.41R WCI  13
WINDOM         CLOUDY    27  19  74 NW25G35   30.38R WCI  11
WORTHINGTON    CLOUDY    27  19  74 NW21      30.39R WCI  13
$$

IAZ001>003-012>014-020>022-031-032-NEZ013-014-SDZ071-292200-
NORTHWEST IOWA

CITY           SKY/WX    TMP DP  RH WIND       PRES   REMARKS
ESTHERVILLE    CLOUDY    27  20  75 NW25G35   30.36R WCI  12
SIOUX CITY     CLOUDY    36  25  64 NW21      30.42R
SPENCER        CLOUDY    30  21  69 NW23G33   30.38R WCI  17
$$

ABBREVIATIONS USED IN REMARKS
   TC - TEMPERATURE IN CELSIUS
  WCI - WIND CHILL INDEX
   HX - HEAT INDEX
  VSB - VISIBILITY



USA.gov is the U.S. government's official web portal to all federal, state and local government web resources and services.